Каринторф

Россия / Кировская область     58°33′08″N   50°11′16″E
темп.,
°C
ветер,
м/с
пор.,
м/с
влажн.,
%
обл.,
%
осадки,
мм/ч
давл.,
гПа
погр.,
м
17 мая, пн
пн1700:00+15ююз2293100 0.4 101428
03:00+15юз27976 1.6 1014157
06:00+18юз36830 0.0 1015242
09:00+22зюз47551 0.0 10151211
12:00+25з684115 0.0 10162191
15:00+24з573997 0.0 10161984
18:00+22сз365312 0.0 1016549
21:00+16с2776100 0.0 1018155
18 мая, вт
вт1800:00+13св228745 0.0 101941
03:00+11ссв22885 0.0 102022
06:00+15ссв2372100 0.0 1021287
09:00+19ссв2357100 0.0 1022817
12:00+22св2346100 0.0 10211251
15:00+23всв234078 0.0 10211557
18:00+21всв2554100 0.0 1021173
21:00+16вюв2469100 0.0 102253
19 мая, ср
ср1900:00+14вюв3877100 0.0 1022150
03:00+12вюв387883 0.0 1023161
06:00+15юв497099 0.0 1023341
09:00+20юв4654100 0.0 1023835
12:00+23юв4640100 0.0 10221184
15:00+24юв453572 0.0 10211368
18:00+22вюв264999 0.0 1021213
21:00+16юв3968100 0.0 1021149
20 мая, чт
чт2000:00+13юв367057 0.0 1021100
03:00+12юв37765 0.0 1021108
06:00+16юв37635 0.0 1021251
09:00+22ююв35465 0.0 1021780
12:00+24ююв4637100 0.0 10191593
15:00+25ююв46369 0.0 10181857
18:00+23ююв374947 0.0 1017424
21:00+16ююв311656 0.0 1017208
21 мая, пт
пт2100:00+14юв310680 0.0 1016197
03:00+12юв397321 0.0 1016153
06:00+16юв41163100 0.0 1015358
09:00+18юв495461 0.0 1014611
12:00+19ю3654100 0.0 1013756
15:00+16юв127599 0.3 1012181
18:00+15юз3786100 0.4 1012363
21:00+13ю41294100 0.9 1012373